Zurück zum Katalog

METEOR 2-8 DEB

AktivPO
NORAD 36320·DEBRIS·🇷🇺 Russia

Gestartet Mar 25, 1982 von Plesetsk Cosmodrome

Loading…

Nächste Überflüge (nächste 24 Stunden)

TLE

AktuellSource: Space-Track

Epoche: Sep 13, 2026, 03:45 UTC

1 36320U 82025E   26256.15637054  .00004602  00000-0  13033-2 0  9997
2 36320  82.4646  53.4027 0003389 342.4374  17.6702 14.45417831680923

Verfolge METEOR 2-8 DEB in Echtzeit mit AllMySat

Download on the App Store